QPF
0.00 0.00 0.00 0.00 0.00 0.00 0.00 0.00 0.00 0.00 0.00 0.00 0.00 0.00 0.00 0.00 0.00 0.00 0.00 0.00 0.00 0.00 0.00 0.00 0.00 0.00 0.00 0.00 0.00 0.00 0.00 0.00 0.00 0.00 0.00 0.00 0.00 0.00 0.00 0.00 0.00 0.00 0.00
0.00 0.00 0.00 0.00 0.00 0.00 0.00 0.00 0.00 0.00 0.00 0.00 0.00 0.00 0.00 0.00 0.00 0.00 0.00 0.00 0.00 0.00 0.00 0.00 0.00 0.00 0.00 0.00 0.00 0.00 0.00 0.00 0.00 0.00 0.01 0.01 0.00 0.00 0.00 0.00 0.00 0.00 0.00
0.00 0.00 0.00 0.00 0.00 0.00 0.00 0.00 0.00 0.00 0.00 0.00 0.00 0.00 0.00 0.00 0.00 0.00 0.00 0.00 0.00 0.00 0.00 0.00 0.00 0.00 0.00 0.00 0.00 0.00 0.00 0.00 0.00 0.00 0.01 0.02 0.01 0.01 0.00 0.00 0.00 0.00 0.00
0.00 0.00 0.00 0.00 0.00 0.00 0.00 0.00 0.00 0.00 0.00 0.00 0.00 0.00 0.00 0.00 0.00 0.00 0.00 0.00 0.00 0.00 0.00 0.00 0.00 0.00 0.00 0.00 0.00 0.00 0.00 0.00 0.00 0.00 0.00 0.01 0.01 0.01 0.01 0.00 0.00 0.00 0.00
0.00 0.00 0.00 0.00 0.00 0.00 0.00 0.00 0.00 0.00 0.00 0.00 0.00 0.00 0.00 0.00 0.00 0.00 0.00 0.00 0.00 0.00 0.00 0.00 0.00 0.00 0.00 0.00 0.00 0.00 0.00 0.00 0.00 0.00 0.00 0.00 0.00 0.00 0.00 0.00 0.00 0.00 0.00
0.00 0.00 0.00 0.00 0.00 0.00 0.00 0.00 0.00 0.00 0.00 0.00 0.00 0.00 0.00 0.00 0.00 0.00 0.00 0.00 0.00 0.00 0.00 0.00 0.00 0.00 0.00 0.00 0.00 0.00 0.00 0.00 0.00 0.00 0.00 0.00 0.00 0.00 0.00 0.00 0.00 0.00 0.00
0.00 0.00 0.00 0.00 0.00 0.00 0.00 0.00 0.00 0.00 0.00 0.00 0.00 0.00 0.00 0.00 0.00 0.00 0.00 0.00 0.00 0.00 0.00 0.00 0.00 0.00 0.00 0.00 0.00 0.00 0.00 0.00 0.00 0.00 0.00 0.00 0.00 0.00 0.00 0.01 0.00 0.00 0.00
0.00 0.00 0.00 0.00 0.00 0.00 0.00 0.00 0.00 0.00 0.00 0.00 0.00 0.00 0.00 0.00 0.00 0.00 0.00 0.00 0.00 0.00 0.00 0.00 0.00 0.00 0.00 0.00 0.00 0.00 0.00 0.00 0.00 0.00 0.00 0.00 0.00 0.00 0.00 0.01 0.01 0.00 0.00
0.00 0.00 0.00 0.00 0.00 0.00 0.00 0.00 0.00 0.00 0.00 0.00 0.00 0.00 0.00 0.00 0.00 0.00 0.00 0.00 0.00 0.00 0.00 0.00 0.00 0.00 0.00 0.00 0.00 0.00 0.00 0.00 0.00 0.00 0.00 0.00 0.00 0.00 0.00 0.00 0.01 0.01 0.00
0.00 0.00 0.00 0.00 0.00 0.00 0.00 0.00 0.00 0.00 0.00 0.00 0.00 0.00 0.00 0.00 0.00 0.00 0.00 0.00 0.00 0.00 0.00 0.00 0.00 0.00 0.00 0.00 0.00 0.00 0.00 0.00 0.00 0.00 0.00 0.00 0.00 0.00 0.00 0.00 0.00 0.00 0.00
0.00 0.00 0.00 0.00 0.00 0.00 0.00 0.00 0.00 0.00 0.00 0.00 0.00 0.00 0.00 0.00 0.00 0.00 0.00 0.00 0.00 0.00 0.00 0.00 0.00 0.00 0.00 0.00 0.00 0.00 0.00 0.00 0.00 0.00 0.00 0.00 0.00 0.00 0.00 0.00 0.00 0.00 0.00
0.00 0.00 0.00 0.00 0.00 0.00 0.00 0.00 0.00 0.00 0.00 0.00 0.00 0.00 0.00 0.00 0.00 0.00 0.00 0.00 0.00 0.00 0.00 0.00 0.00 0.00 0.00 0.00 0.00 0.00 0.00 0.00 0.00 0.00 0.00 0.00 0.00 0.00 0.00 0.00 0.00 0.00 0.00
0.00 0.00 0.00 0.00 0.00 0.00 0.00 0.00 0.00 0.00 0.00 0.00 0.00 0.00 0.00 0.00 0.00 0.00 0.00 0.00 0.00 0.00 0.00 0.00 0.00 0.00 0.00 0.00 0.00 0.00 0.00 0.00 0.00 0.00 0.00 0.00 0.00 0.00 0.00 0.00 0.00 0.00 0.01
0.00 0.00 0.00 0.00 0.00 0.00 0.00 0.00 0.00 0.00 0.00 0.00 0.00 0.00 0.00 0.00 0.00 0.00 0.00 0.00 0.00 0.00 0.00 0.00 0.00 0.00 0.00 0.00 0.00 0.00 0.00 0.00 0.00 0.00 0.00 0.00 0.00 0.00 0.00 0.00 0.00 0.01 0.01
0.00 0.00 0.00 0.00 0.00 0.00 0.00 0.00 0.00 0.00 0.00 0.00 0.00 0.00 0.00 0.00 0.00 0.00 0.00 0.00 0.00 0.00 0.00 0.00 0.00 0.00 0.00 0.00 0.00 0.00 0.00 0.00 0.00 0.00 0.00 0.00 0.00 0.00 0.00 0.01 0.01 0.01 0.02
0.00 0.00 0.00 0.00 0.00 0.00 0.00 0.00 0.00 0.00 0.00 0.00 0.00 0.00 0.00 0.00 0.00 0.00 0.00 0.00 0.00 0.00 0.00 0.00 0.00 0.00 0.00 0.00 0.00 0.00 0.00 0.00 0.00 0.00 0.00 0.00 0.00 0.00 0.01 0.01 0.01 0.02 0.03
0.00 0.00 0.00 0.00 0.00 0.00 0.00 0.00 0.00 0.00 0.00 0.00 0.00 0.00 0.00 0.00 0.00 0.00 0.00 0.00 0.00 0.00 0.00 0.00 0.00 0.00 0.00 0.00 0.00 0.00 0.00 0.00 0.00 0.00 0.00 0.00 0.00 0.00 0.00 0.01 0.01 0.02 0.02
0.00 0.00 0.00 0.00 0.00 0.00 0.00 0.00 0.00 0.00 0.00 0.00 0.00 0.00 0.00 0.00 0.00 0.00 0.00 0.00 0.00 0.00 0.00 0.00 0.00 0.00 0.00 0.00 0.00 0.00 0.00 0.00 0.00 0.00 0.00 0.00 0.00 0.00 0.01 0.02 0.03 0.02 0.01
0.00 0.00 0.00 0.00 0.00 0.00 0.00 0.00 0.00 0.00 0.00 0.00 0.00 0.00 0.00 0.00 0.00 0.00 0.00 0.00 0.00 0.00 0.00 0.00 0.00 0.00 0.00 0.00 0.00 0.00 0.00 0.00 0.00 0.00 0.00 0.01 0.01 0.01 0.03 0.04 0.03 0.01 0.00
0.00 0.00 0.00 0.00 0.00 0.00 0.00 0.00 0.00 0.00 0.00 0.00 0.00 0.00 0.00 0.00 0.00 0.00 0.00 0.00 0.00 0.00 0.00 0.00 0.00 0.00 0.00 0.00 0.00 0.00 0.00 0.00 0.00 0.01 0.00 0.00 0.01 0.02 0.04 0.03 0.02 0.01 0.01
0.00 0.00 0.00 0.00 0.00 0.00 0.00 0.00 0.00 0.00 0.00 0.00 0.00 0.00 0.00 0.00 0.00 0.00 0.00 0.00 0.00 0.00 0.00 0.00 0.00 0.00 0.00 0.00 0.00 0.00 0.01 0.01 0.02 0.01 0.01 0.00 0.02 0.03 0.02 0.01 0.01 0.01 0.02
0.00 0.00 0.00 0.00 0.00 0.00 0.00 0.00 0.00 0.00 0.00 0.00 0.00 0.00 0.00 0.00 0.00 0.00 0.00 0.00 0.00 0.00 0.00 0.00 0.00 0.00 0.00 0.00 0.00 0.01 0.01 0.02 0.02 0.01 0.01 0.01 0.02 0.02 0.01 0.00 0.00 0.01 0.01
0.00 0.00 0.00 0.00 0.00 0.00 0.00 0.00 0.00 0.00 0.00 0.00 0.00 0.00 0.00 0.00 0.00 0.00 0.00 0.00 0.00 0.00 0.00 0.00 0.00 0.00 0.00 0.00 0.00 0.00 0.02 0.02 0.02 0.02 0.02 0.02 0.01 0.00 0.00 0.00 0.00 0.00 0.00
0.00 0.00 0.00 0.00 0.00 0.00 0.00 0.00 0.00 0.00 0.00 0.00 0.00 0.00 0.00 0.00 0.00 0.00 0.00 0.00 0.00 0.00 0.00 0.00 0.00 0.00 0.00 0.00 0.00 0.01 0.02 0.02 0.02 0.03 0.02 0.01 0.00 0.00 0.00 0.00 0.00 0.00 0.00
0.00 0.00 0.00 0.00 0.00 0.00 0.00 0.00 0.00 0.00 0.00 0.00 0.00 0.00 0.00 0.00 0.00 0.00 0.00 0.00 0.00 0.00 0.00 0.00 0.00 0.00 0.00 0.00 0.02 0.02 0.02 0.02 0.03 0.02 0.01 0.00 0.00 0.00 0.00 0.00 0.00 0.00 0.00
0.00 0.00 0.00 0.00 0.00 0.00 0.00 0.00 0.00 0.00 0.00 0.00 0.00 0.00 0.00 0.00 0.00 0.00 0.00 0.00 0.00 0.00 0.00 0.00 0.00 0.00 0.01 0.01 0.02 0.02 0.02 0.03 0.02 0.01 0.00 0.00 0.00 0.01 0.00 0.00 0.00 0.00 0.01
MSLP
1011.21 1011.50 1011.62 1011.55 1011.32 1011.00 1010.67 1010.41 1010.29 1010.33 1010.53 1010.86 1011.28 1011.73 1012.16 1012.52 1012.80 1012.99 1013.11 1013.16 1013.16 1013.11 1013.03 1012.92 1012.78 1012.61 1012.40 1012.16 1011.89 1011.56 1011.19 1010.75 1010.24 1009.65 1008.98 1008.27 1007.51 1006.75 1006.02 1005.36 1004.79 1004.31 1003.93
1011.41 1011.78 1011.96 1011.94 1011.75 1011.47 1011.16 1010.93 1010.83 1010.90 1011.12 1011.48 1011.91 1012.36 1012.77 1013.12 1013.38 1013.56 1013.66 1013.71 1013.71 1013.69 1013.63 1013.54 1013.41 1013.23 1013.02 1012.74 1012.43 1012.06 1011.64 1011.16 1010.61 1009.99 1009.30 1008.54 1007.74 1006.92 1006.12 1005.37 1004.69 1004.11 1003.62
1011.54 1011.98 1012.22 1012.26 1012.13 1011.90 1011.65 1011.46 1011.41 1011.53 1011.78 1012.16 1012.59 1013.03 1013.42 1013.74 1013.97 1014.12 1014.21 1014.26 1014.27 1014.26 1014.23 1014.16 1014.05 1013.88 1013.65 1013.35 1013.00 1012.59 1012.14 1011.62 1011.06 1010.43 1009.74 1008.98 1008.16 1007.31 1006.45 1005.61 1004.83 1004.13 1003.52
1011.61 1012.12 1012.42 1012.53 1012.46 1012.30 1012.12 1012.01 1012.02 1012.18 1012.48 1012.86 1013.29 1013.71 1014.07 1014.34 1014.53 1014.65 1014.72 1014.75 1014.78 1014.78 1014.78 1014.73 1014.63 1014.46 1014.22 1013.90 1013.52 1013.09 1012.61 1012.09 1011.53 1010.92 1010.25 1009.51 1008.70 1007.84 1006.94 1006.03 1005.15 1004.33 1003.59
1011.66 1012.22 1012.59 1012.76 1012.77 1012.69 1012.60 1012.57 1012.65 1012.86 1013.18 1013.58 1013.99 1014.37 1014.68 1014.91 1015.05 1015.12 1015.16 1015.18 1015.21 1015.22 1015.23 1015.20 1015.10 1014.93 1014.67 1014.34 1013.93 1013.48 1012.99 1012.48 1011.94 1011.36 1010.73 1010.04 1009.26 1008.41 1007.49 1006.54 1005.58 1004.66 1003.79
1011.70 1012.31 1012.74 1012.99 1013.09 1013.10 1013.09 1013.14 1013.29 1013.54 1013.89 1014.28 1014.66 1015.00 1015.26 1015.43 1015.52 1015.55 1015.55 1015.56 1015.57 1015.59 1015.60 1015.56 1015.46 1015.28 1015.00 1014.64 1014.22 1013.74 1013.25 1012.75 1012.23 1011.70 1011.12 1010.48 1009.76 1008.93 1008.02 1007.04 1006.03 1005.02 1004.05
1011.73 1012.40 1012.91 1013.23 1013.42 1013.53 1013.61 1013.74 1013.94 1014.23 1014.58 1014.96 1015.31 1015.60 1015.81 1015.92 1015.96 1015.95 1015.92 1015.90 1015.90 1015.90 1015.90 1015.84 1015.72 1015.52 1015.21 1014.82 1014.36 1013.86 1013.36 1012.86 1012.37 1011.88 1011.35 1010.77 1010.10 1009.32 1008.44 1007.47 1006.43 1005.36 1004.32
1011.75 1012.48 1013.06 1013.47 1013.76 1013.96 1014.13 1014.33 1014.58 1014.90 1015.25 1015.60 1015.92 1016.16 1016.32 1016.39 1016.39 1016.34 1016.29 1016.24 1016.22 1016.20 1016.16 1016.08 1015.92 1015.67 1015.32 1014.88 1014.39 1013.86 1013.33 1012.83 1012.34 1011.88 1011.39 1010.86 1010.25 1009.53 1008.69 1007.74 1006.71 1005.63 1004.55
1011.73 1012.52 1013.17 1013.68 1014.05 1014.35 1014.61 1014.87 1015.17 1015.51 1015.86 1016.20 1016.48 1016.69 1016.81 1016.84 1016.82 1016.75 1016.67 1016.60 1016.55 1016.49 1016.42 1016.29 1016.09 1015.78 1015.37 1014.88 1014.33 1013.76 1013.20 1012.67 1012.18 1011.72 1011.25 1010.76 1010.19 1009.53 1008.74 1007.84 1006.85 1005.78 1004.69
1011.65 1012.49 1013.22 1013.81 1014.28 1014.66 1015.01 1015.34 1015.68 1016.04 1016.40 1016.72 1016.99 1017.17 1017.27 1017.28 1017.24 1017.16 1017.06 1016.97 1016.89 1016.80 1016.68 1016.49 1016.23 1015.86 1015.39 1014.84 1014.23 1013.61 1013.00 1012.43 1011.91 1011.43 1010.96 1010.48 1009.95 1009.33 1008.60 1007.76 1006.82 1005.80 1004.73
1011.49 1012.38 1013.16 1013.84 1014.40 1014.87 1015.29 1015.69 1016.09 1016.47 1016.84 1017.16 1017.42 1017.59 1017.68 1017.69 1017.64 1017.55 1017.45 1017.34 1017.22 1017.09 1016.91 1016.67 1016.34 1015.91 1015.38 1014.77 1014.11 1013.43 1012.77 1012.15 1011.58 1011.07 1010.58 1010.09 1009.56 1008.97 1008.29 1007.51 1006.64 1005.67 1004.66
1011.28 1012.20 1013.03 1013.77 1014.41 1014.97 1015.47 1015.94 1016.38 1016.80 1017.18 1017.51 1017.77 1017.95 1018.04 1018.06 1018.01 1017.91 1017.79 1017.65 1017.50 1017.31 1017.08 1016.78 1016.38 1015.90 1015.32 1014.66 1013.96 1013.24 1012.53 1011.86 1011.24 1010.67 1010.14 1009.62 1009.09 1008.51 1007.86 1007.13 1006.31 1005.41 1004.45
1011.05 1011.98 1012.85 1013.64 1014.35 1014.98 1015.56 1016.09 1016.59 1017.04 1017.45 1017.80 1018.07 1018.25 1018.34 1018.36 1018.30 1018.20 1018.05 1017.88 1017.68 1017.44 1017.15 1016.78 1016.34 1015.81 1015.19 1014.51 1013.78 1013.03 1012.28 1011.57 1010.91 1010.28 1009.70 1009.14 1008.57 1007.98 1007.34 1006.65 1005.87 1005.03 1004.12
1010.86 1011.79 1012.68 1013.51 1014.27 1014.97 1015.61 1016.20 1016.75 1017.24 1017.67 1018.03 1018.31 1018.49 1018.59 1018.59 1018.52 1018.39 1018.21 1017.98 1017.73 1017.43 1017.08 1016.66 1016.18 1015.61 1014.98 1014.28 1013.54 1012.78 1012.03 1011.28 1010.57 1009.90 1009.26 1008.64 1008.03 1007.41 1006.77 1006.08 1005.34 1004.53 1003.66
1010.79 1011.71 1012.60 1013.44 1014.24 1014.98 1015.68 1016.32 1016.91 1017.43 1017.89 1018.26 1018.53 1018.70 1018.77 1018.75 1018.65 1018.47 1018.24 1017.97 1017.65 1017.28 1016.88 1016.41 1015.89 1015.31 1014.67 1013.98 1013.25 1012.50 1011.73 1010.98 1010.24 1009.52 1008.83 1008.15 1007.49 1006.83 1006.15 1005.45 1004.72 1003.94 1003.10
1010.87 1011.76 1012.64 1013.49 1014.30 1015.08 1015.81 1016.49 1017.11 1017.65 1018.11 1018.47 1018.73 1018.87 1018.91 1018.85 1018.69 1018.46 1018.17 1017.83 1017.44 1017.01 1016.55 1016.04 1015.50 1014.91 1014.27 1013.59 1012.89 1012.15 1011.40 1010.64 1009.88 1009.12 1008.38 1007.65 1006.93 1006.22 1005.50 1004.78 1004.04 1003.26 1002.44
1011.12 1011.98 1012.83 1013.67 1014.49 1015.28 1016.03 1016.73 1017.36 1017.90 1018.35 1018.69 1018.91 1019.02 1019.00 1018.88 1018.66 1018.37 1018.01 1017.60 1017.15 1016.66 1016.15 1015.60 1015.04 1014.44 1013.81 1013.16 1012.47 1011.75 1011.01 1010.26 1009.48 1008.70 1007.91 1007.13 1006.35 1005.59 1004.83 1004.08 1003.31 1002.53 1001.71
1011.52 1012.34 1013.17 1013.99 1014.80 1015.59 1016.34 1017.03 1017.65 1018.18 1018.59 1018.90 1019.07 1019.11 1019.04 1018.85 1018.58 1018.21 1017.79 1017.32 1016.81 1016.27 1015.72 1015.15 1014.56 1013.96 1013.33 1012.68 1012.01 1011.31 1010.58 1009.81 1009.03 1008.22 1007.40 1006.58 1005.76 1004.95 1004.15 1003.36 1002.57 1001.76 1000.93
1012.02 1012.81 1013.60 1014.40 1015.19 1015.96 1016.69 1017.36 1017.96 1018.45 1018.82 1019.06 1019.17 1019.16 1019.02 1018.77 1018.42 1018.01 1017.53 1017.02 1016.47 1015.90 1015.31 1014.72 1014.11 1013.49 1012.86 1012.21 1011.54 1010.83 1010.09 1009.33 1008.52 1007.70 1006.85 1006.00 1005.15 1004.30 1003.47 1002.65 1001.83 1001.01 1000.16
1012.57 1013.32 1014.09 1014.85 1015.61 1016.35 1017.05 1017.69 1018.23 1018.67 1018.98 1019.16 1019.21 1019.12 1018.92 1018.61 1018.22 1017.77 1017.26 1016.71 1016.14 1015.55 1014.95 1014.34 1013.72 1013.09 1012.43 1011.77 1011.07 1010.35 1009.59 1008.80 1007.98 1007.14 1006.28 1005.41 1004.54 1003.68 1002.83 1001.99 1001.15 1000.29 999.43
1013.10 1013.83 1014.56 1015.29 1016.02 1016.72 1017.38 1017.97 1018.46 1018.84 1019.08 1019.19 1019.16 1019.01 1018.75 1018.40 1017.97 1017.49 1016.97 1016.41 1015.84 1015.25 1014.64 1014.02 1013.38 1012.73 1012.05 1011.35 1010.63 1009.87 1009.09 1008.28 1007.44 1006.58 1005.72 1004.84 1003.97 1003.11 1002.25 1001.40 1000.54 999.67 998.78
1013.59 1014.29 1014.99 1015.70 1016.39 1017.05 1017.66 1018.20 1018.62 1018.92 1019.09 1019.13 1019.03 1018.82 1018.51 1018.12 1017.68 1017.19 1016.66 1016.12 1015.55 1014.97 1014.37 1013.74 1013.09 1012.41 1011.71 1010.97 1010.20 1009.41 1008.60 1007.76 1006.91 1006.05 1005.19 1004.33 1003.47 1002.62 1001.78 1000.92 1000.05 999.16 998.23
1014.02 1014.70 1015.38 1016.05 1016.71 1017.33 1017.88 1018.35 1018.71 1018.94 1019.03 1018.99 1018.84 1018.57 1018.22 1017.81 1017.35 1016.86 1016.35 1015.82 1015.27 1014.70 1014.10 1013.47 1012.81 1012.11 1011.37 1010.60 1009.80 1008.98 1008.14 1007.29 1006.43 1005.59 1004.74 1003.90 1003.07 1002.24 1001.41 1000.57 999.69 998.78 997.82
1014.41 1015.06 1015.72 1016.36 1016.98 1017.55 1018.05 1018.46 1018.74 1018.90 1018.92 1018.81 1018.59 1018.28 1017.90 1017.47 1017.00 1016.52 1016.02 1015.50 1014.97 1014.41 1013.82 1013.19 1012.52 1011.80 1011.04 1010.24 1009.42 1008.58 1007.73 1006.88 1006.03 1005.20 1004.39 1003.58 1002.78 1001.98 1001.17 1000.33 999.45 998.52 997.53
1014.75 1015.39 1016.02 1016.63 1017.21 1017.73 1018.17 1018.51 1018.72 1018.81 1018.76 1018.60 1018.33 1017.98 1017.57 1017.12 1016.65 1016.16 1015.67 1015.16 1014.64 1014.09 1013.51 1012.88 1012.20 1011.47 1010.70 1009.89 1009.06 1008.22 1007.38 1006.54 1005.73 1004.93 1004.15 1003.38 1002.61 1001.84 1001.04 1000.20 999.32 998.37 997.35
1015.08 1015.69 1016.28 1016.86 1017.39 1017.86 1018.24 1018.51 1018.66 1018.68 1018.58 1018.36 1018.05 1017.67 1017.24 1016.78 1016.30 1015.82 1015.32 1014.82 1014.30 1013.75 1013.16 1012.53 1011.84 1011.12 1010.35 1009.56 1008.74 1007.92 1007.11 1006.31 1005.53 1004.76 1004.01 1003.28 1002.53 1001.77 1000.98 1000.14 999.24 998.28 997.24
Thickness
5695 5697 5699 5701 5703 5704 5706 5706 5707 5706 5703 5699 5693 5686 5680 5674 5669 5664 5660 5657 5654 5651 5648 5647 5644 5642 5640 5638 5637 5636 5636 5636 5635 5636 5640 5644 5648 5650 5649 5647 5644 5642 5640
5691 5691 5692 5693 5694 5695 5695 5696 5695 5694 5692 5687 5682 5676 5670 5663 5657 5652 5647 5644 5641 5638 5636 5633 5632 5629 5627 5625 5623 5621 5620 5621 5619 5618 5622 5630 5635 5637 5632 5626 5626 5626 5626
5688 5686 5685 5683 5683 5683 5684 5683 5682 5681 5678 5675 5670 5664 5658 5653 5647 5641 5636 5632 5629 5625 5623 5620 5618 5616 5614 5611 5608 5606 5604 5604 5604 5601 5598 5600 5607 5607 5613 5613 5609 5607 5607
5682 5680 5677 5675 5673 5673 5673 5672 5671 5669 5666 5664 5660 5655 5649 5642 5635 5630 5625 5621 5616 5613 5610 5607 5604 5602 5600 5597 5594 5590 5587 5586 5585 5582 5578 5572 5570 5573 5586 5587 5585 5583 5581
5675 5671 5668 5665 5664 5662 5662 5661 5660 5657 5654 5651 5646 5642 5636 5629 5624 5619 5614 5611 5605 5600 5596 5593 5590 5587 5584 5580 5577 5573 5570 5567 5563 5559 5556 5553 5550 5548 5552 5561 5562 5558 5555
5667 5663 5659 5657 5655 5653 5652 5650 5648 5644 5640 5636 5633 5628 5623 5618 5613 5608 5604 5600 5595 5589 5584 5580 5577 5573 5569 5564 5560 5556 5552 5547 5541 5536 5532 5528 5524 5522 5521 5527 5536 5537 5537
5660 5656 5653 5651 5648 5645 5642 5640 5637 5632 5627 5623 5619 5614 5610 5605 5600 5596 5592 5588 5583 5578 5571 5567 5563 5559 5554 5549 5544 5539 5533 5528 5521 5516 5511 5505 5499 5495 5490 5489 5497 5504 5510
5655 5651 5648 5644 5641 5637 5633 5630 5625 5620 5615 5610 5606 5601 5597 5592 5587 5582 5578 5574 5569 5564 5558 5553 5549 5544 5538 5533 5527 5522 5515 5509 5503 5497 5489 5483 5477 5469 5461 5454 5451 5458 5473
5649 5644 5640 5637 5632 5628 5623 5619 5614 5608 5603 5598 5594 5589 5584 5579 5574 5569 5564 5559 5554 5549 5544 5539 5534 5528 5522 5516 5509 5504 5497 5490 5483 5476 5468 5461 5454 5445 5435 5425 5415 5407 5414
5644 5638 5633 5627 5623 5617 5612 5608 5604 5598 5592 5587 5581 5575 5571 5566 5561 5556 5551 5545 5540 5534 5529 5523 5517 5511 5504 5498 5491 5485 5478 5471 5463 5455 5448 5440 5431 5422 5411 5401 5391 5379 5369
5639 5632 5626 5619 5613 5607 5602 5597 5592 5586 5580 5574 5569 5564 5558 5553 5548 5542 5536 5530 5524 5518 5512 5505 5499 5492 5486 5479 5473 5467 5459 5451 5444 5435 5427 5418 5406 5397 5388 5378 5368 5359 5348
5634 5627 5618 5611 5604 5598 5593 5588 5582 5576 5569 5562 5557 5551 5545 5539 5534 5528 5521 5515 5508 5501 5494 5487 5480 5474 5467 5460 5454 5448 5440 5433 5425 5416 5406 5396 5384 5374 5364 5356 5348 5340 5332
5627 5619 5611 5604 5598 5590 5584 5578 5571 5564 5557 5551 5545 5539 5532 5526 5519 5513 5506 5499 5492 5484 5477 5470 5463 5456 5449 5442 5436 5429 5422 5414 5405 5395 5384 5374 5362 5354 5344 5335 5328 5322 5316
5620 5613 5606 5598 5590 5582 5575 5568 5561 5553 5546 5539 5533 5526 5519 5511 5505 5498 5491 5483 5475 5468 5460 5453 5446 5439 5432 5425 5418 5410 5403 5396 5386 5375 5364 5353 5342 5333 5324 5317 5311 5303 5298
5614 5607 5599 5591 5582 5573 5565 5558 5550 5542 5535 5527 5520 5512 5505 5498 5491 5483 5475 5467 5459 5452 5444 5437 5431 5423 5415 5408 5396 5390 5384 5376 5368 5358 5347 5336 5325 5314 5305 5297 5292 5286 5283
5608 5600 5591 5584 5575 5565 5556 5547 5539 5530 5522 5515 5506 5498 5491 5484 5476 5468 5460 5453 5445 5438 5430 5423 5416 5408 5399 5389 5377 5368 5364 5357 5349 5342 5334 5325 5313 5303 5294 5286 5279 5272 5268
5601 5592 5584 5575 5565 5555 5546 5537 5528 5518 5510 5501 5493 5485 5478 5470 5462 5454 5446 5439 5432 5425 5417 5409 5401 5393 5384 5372 5361 5352 5345 5340 5332 5324 5317 5310 5300 5288 5282 5279 5275 5270 5264
5593 5584 5575 5563 5553 5543 5534 5525 5515 5506 5497 5489 5481 5472 5464 5456 5448 5440 5434 5426 5419 5411 5403 5395 5386 5377 5367 5355 5344 5337 5332 5327 5318 5308 5299 5291 5285 5276 5269 5268 5268 5267 5263
5584 5574 5563 5552 5541 5532 5522 5512 5503 5493 5485 5476 5467 5459 5450 5442 5434 5428 5421 5413 5405 5397 5388 5378 5369 5361 5351 5339 5328 5320 5317 5314 5307 5297 5286 5276 5271 5265 5258 5255 5258 5261 5261
5567 5557 5548 5539 5530 5520 5510 5501 5491 5482 5473 5462 5453 5444 5436 5428 5421 5414 5407 5399 5390 5382 5372 5364 5354 5345 5336 5326 5315 5305 5301 5299 5295 5288 5278 5268 5261 5256 5251 5247 5249 5252 5254
5551 5543 5536 5527 5518 5507 5497 5489 5479 5469 5458 5447 5438 5431 5423 5415 5407 5400 5392 5384 5376 5368 5360 5351 5341 5332 5324 5316 5306 5296 5287 5282 5279 5275 5270 5262 5254 5248 5245 5241 5241 5241 5243
5537 5531 5524 5513 5503 5493 5485 5477 5466 5454 5443 5434 5426 5418 5410 5402 5393 5385 5377 5368 5360 5353 5346 5338 5330 5321 5313 5304 5296 5287 5277 5267 5262 5260 5257 5253 5247 5244 5241 5238 5237 5237 5240
5526 5519 5511 5499 5489 5479 5472 5463 5451 5440 5430 5422 5414 5406 5397 5389 5380 5370 5362 5353 5344 5335 5329 5323 5318 5313 5303 5294 5285 5277 5268 5260 5252 5249 5246 5244 5241 5239 5237 5235 5234 5236 5239
5514 5506 5497 5487 5476 5466 5456 5447 5437 5427 5418 5411 5403 5394 5386 5377 5368 5357 5346 5336 5326 5318 5312 5307 5304 5299 5292 5282 5273 5264 5257 5250 5245 5242 5241 5239 5237 5233 5231 5232 5234 5236 5237
5502 5494 5485 5475 5465 5453 5443 5433 5424 5415 5407 5399 5391 5382 5372 5364 5354 5344 5332 5320 5310 5298 5292 5288 5284 5279 5276 5267 5255 5246 5243 5238 5235 5235 5234 5234 5232 5231 5231 5232 5234 5236 5239
5489 5480 5471 5461 5451 5440 5431 5421 5412 5402 5394 5386 5378 5369 5359 5350 5340 5331 5322 5311 5299 5291 5281 5273 5267 5263 5256 5250 5243 5236 5232 5230 5228 5227 5226 5225 5224 5225 5228 5231 5235 5237 5239